Вернуться в каталог

STARLINK-4464

АктивенСвязьPO
NORAD 53669·PAYLOAD·🇺🇸 United States

Запущен Aug 31, 2022 с Vandenberg Space Force Base

Loading…

Ближайшие Пролёты (ближайшие 24 часа)

TLE

СвежийSource: CelesTrak SupGP

Эпоха: Sep 15, 2026, 01:34 UTC

1 53669C 22105X   26258.06576389  .00348920  00000+0  79264-3 0  2580
2 53669  97.5878 148.8609 0002534 147.9310  51.4083 15.97315428    17

Отслеживайте STARLINK-4464 в реальном времени с AllMySat

Download on the App Store